Time,TemperatureF,DewpointF,PressureIn,WindDirection,WindDirectionDegrees,WindSpeedMPH,WindSpeedGustMPH,Humidity,HourlyPrecipIn,Conditions,Clouds,dailyrainin,SolarRadiationWatts/m^2,SoftwareType,DateUTC
2013-06-04 00:00:00,47.0,47.0,29.84,NNE,20,11.0,-999.0,99,-99.99,,,-99.99,0.050000,,2013-06-04 06:00:00,
2013-06-04 00:52:00,47.0,47.0,29.84,NNE,20,11.0,-999.0,99,-99.99,,,-99.99,0.050000,,2013-06-04 06:52:00,
2013-06-04 02:00:00,45.0,45.0,29.88,NNE,18,13.0,-999.0,98,-99.99,,,-99.99,0.050000,,2013-06-04 08:00:00,
2013-06-04 02:52:00,45.0,45.0,29.88,NNE,18,13.0,-999.0,98,-99.99,,,-99.99,0.050000,,2013-06-04 08:52:00,
2013-06-04 03:00:00,45.0,44.0,29.90,NNE,12,13.0,-999.0,98,-99.99,,,-99.99,0.080000,,2013-06-04 09:00:00,
2013-06-04 03:53:00,45.0,44.0,29.90,NNE,12,13.0,-999.0,98,-99.99,,,-99.99,0.080000,,2013-06-04 09:53:00,
2013-06-04 04:00:00,44.0,44.0,29.93,North,352,13.0,-999.0,99,-99.99,,,-99.99,0.070000,,2013-06-04 10:00:00,
2013-06-04 04:53:00,44.0,44.0,29.93,North,352,13.0,-999.0,99,-99.99,,,-99.99,0.070000,,2013-06-04 10:53:00,
2013-06-04 05:00:00,43.0,43.0,29.95,North,7,12.0,-999.0,99,-99.99,,,-99.99,0.110000,,2013-06-04 11:00:00,
2013-06-04 05:52:00,43.0,43.0,29.95,North,7,12.0,-999.0,99,-99.99,,,-99.99,0.110000,,2013-06-04 11:52:00,
2013-06-04 06:00:00,43.0,43.0,29.98,North,358,11.0,-999.0,99,-99.99,,,-99.99,3.140000,,2013-06-04 12:00:00,
2013-06-04 06:53:00,43.0,43.0,29.98,North,358,11.0,-999.0,99,-99.99,,,-99.99,3.140000,,2013-06-04 12:53:00,
2013-06-04 07:00:00,43.0,42.0,30.00,North,358,13.0,-999.0,98,-99.99,,,-99.99,28.049999,,2013-06-04 13:00:00,
2013-06-04 07:52:00,43.0,42.0,30.00,North,358,13.0,-999.0,98,-99.99,,,-99.99,28.049999,,2013-06-04 13:52:00,
2013-06-04 08:00:00,43.0,42.0,30.02,North,4,14.0,-999.0,98,-99.99,,,-99.99,72.050003,,2013-06-04 14:00:00,
2013-06-04 08:52:00,43.0,42.0,30.02,North,4,14.0,-999.0,98,-99.99,,,-99.99,72.050003,,2013-06-04 14:52:00,
2013-06-04 09:00:00,43.0,42.0,30.04,North,6,16.0,-999.0,97,-99.99,,,-99.99,80.800003,,2013-06-04 15:00:00,
2013-06-04 09:53:00,43.0,42.0,30.04,North,6,16.0,-999.0,97,-99.99,,,-99.99,80.800003,,2013-06-04 15:53:00,
2013-06-04 10:00:00,43.0,43.0,30.06,North,5,17.0,-999.0,97,-99.99,,,-99.99,121.800003,,2013-06-04 16:00:00,
2013-06-04 10:53:00,43.0,43.0,30.06,North,5,17.0,-999.0,97,-99.99,,,-99.99,121.800003,,2013-06-04 16:53:00,
2013-06-04 11:00:00,45.0,44.0,30.07,North,0,17.0,-999.0,96,-99.99,,,-99.99,138.699997,,2013-06-04 17:00:00,
2013-06-04 11:52:00,45.0,44.0,30.07,North,0,17.0,-999.0,96,-99.99,,,-99.99,138.699997,,2013-06-04 17:52:00,
2013-06-04 12:00:00,45.0,44.0,30.08,North,351,17.0,-999.0,94,-99.99,,,-99.99,134.800003,,2013-06-04 18:00:00,
2013-06-04 12:53:00,45.0,44.0,30.08,North,351,17.0,-999.0,94,-99.99,,,-99.99,134.800003,,2013-06-04 18:53:00,
2013-06-04 13:00:00,47.0,44.0,30.09,North,355,19.0,-999.0,88,-99.99,,,-99.99,350.200012,,2013-06-04 19:00:00,
2013-06-04 13:52:00,47.0,44.0,30.09,North,355,19.0,-999.0,88,-99.99,,,-99.99,350.200012,,2013-06-04 19:52:00,
2013-06-04 14:00:00,50.0,44.0,30.10,NNW,348,18.0,-999.0,81,-99.99,,,-99.99,464.200012,,2013-06-04 20:00:00,
2013-06-04 14:53:00,50.0,44.0,30.10,NNW,348,18.0,-999.0,81,-99.99,,,-99.99,464.200012,,2013-06-04 20:53:00,
2013-06-04 15:00:00,50.0,43.0,30.11,NNW,341,16.0,-999.0,76,-99.99,,,-99.99,234.100006,,2013-06-04 21:00:00,
2013-06-04 15:53:00,50.0,43.0,30.11,NNW,341,16.0,-999.0,76,-99.99,,,-99.99,234.100006,,2013-06-04 21:53:00,
2013-06-04 16:00:00,52.0,43.0,30.12,North,359,15.0,-999.0,71,-99.99,,,-99.99,284.600006,,2013-06-04 22:00:00,
2013-06-04 16:52:00,52.0,43.0,30.12,North,359,15.0,-999.0,71,-99.99,,,-99.99,284.600006,,2013-06-04 22:52:00,
2013-06-04 17:00:00,51.0,43.0,30.13,North,7,15.0,-999.0,74,-99.99,,,-99.99,284.200012,,2013-06-04 23:00:00,
2013-06-04 17:52:00,51.0,43.0,30.13,North,7,15.0,-999.0,74,-99.99,,,-99.99,284.200012,,2013-06-04 23:52:00,
2013-06-04 18:00:00,52.0,42.0,30.13,North,8,11.0,-999.0,68,-99.99,,,-99.99,197.500000,,2013-06-05 00:00:00,
2013-06-04 18:52:00,52.0,42.0,30.13,North,8,11.0,-999.0,68,-99.99,,,-99.99,197.500000,,2013-06-05 00:52:00,
2013-06-04 19:00:00,52.0,42.0,30.14,North,358,8.0,-999.0,69,-99.99,,,-99.99,78.080002,,2013-06-05 01:00:00,
2013-06-04 19:52:00,52.0,42.0,30.14,North,358,8.0,-999.0,69,-99.99,,,-99.99,78.080002,,2013-06-05 01:52:00,
2013-06-04 20:00:00,51.0,43.0,30.15,NNW,335,6.0,-999.0,74,-99.99,,,-99.99,21.860001,,2013-06-05 02:00:00,
2013-06-04 20:52:00,51.0,43.0,30.15,NNW,335,6.0,-999.0,74,-99.99,,,-99.99,21.860001,,2013-06-05 02:52:00,
2013-06-04 21:00:00,50.0,43.0,30.16,NW,306,6.0,-999.0,78,-99.99,,,-99.99,6.980000,,2013-06-05 03:00:00,
2013-06-04 21:53:00,50.0,43.0,30.16,NW,306,6.0,-999.0,78,-99.99,,,-99.99,6.980000,,2013-06-05 03:53:00,